DateTimeUTC,F1_A11,F1_S11,BsB_S11,BsG_S11,BsR_S11,BbsB_S11,BbsG_S11,BbsR_S11,BaB_A11,BaG_A11,BaR_A11,Tu_S11,T_S11,Uu_S11,U_S11,P_S11,T1_A11
2021-02-08T15:00:00Z,00000200,21000000,,,,,,,0000.05,0000.18,0000.23,16.8,23.8,01.2,00.8,0654.3,31.0
2021-02-08T15:01:00Z,00000200,21000000,,,,,,,0000.04,0000.24,-000.01,16.8,23.8,01.2,00.8,0654.3,31.0
2021-02-08T15:02:00Z,00000200,21000000,,,,,,,-000.05,-000.10,0000.28,16.8,23.8,01.2,00.8,0654.3,31.0
2021-02-08T15:03:00Z,00000200,61000000,,,,,,,0003.60,0003.02,0002.04,16.8,23.8,01.2,00.8,0654.3,31.0
2021-02-08T15:04:00Z,00000200,41000000,0001.12,0000.36,0000.47,-000.52,0000.28,0000.07,0004.03,0003.59,0003.04,16.9,23.6,01.6,01.1,0655.2,31.0
2021-02-08T15:05:00Z,00000200,01000000,0000.03,0000.15,0000.15,-000.52,0000.18,-000.18,0001.37,0001.33,0000.72,16.9,23.5,01.6,01.1,0655.2,31.0
2021-02-08T15:06:00Z,00000200,01000000,0000.33,0000.73,0000.03,0000.08,0000.09,0000.05,0001.06,0000.81,0000.63,16.9,23.5,01.7,01.1,0655.2,31.0
2021-02-08T15:07:00Z,00000200,01000000,0000.49,0000.44,0000.14,-000.08,-000.19,0000.01,0000.40,0000.55,0000.14,16.9,23.5,01.7,01.1,0655.2,31.0
2021-02-08T15:08:00Z,00000200,01000000,0000.09,0000.41,0000.15,0000.40,0000.18,-000.16,0000.38,0000.20,0000.77,16.9,23.5,01.8,01.2,0655.2,31.0
2021-02-08T15:09:00Z,00000200,01000000,-000.33,0000.33,0000.24,-000.35,0000.22,-000.24,0000.23,0000.28,-000.05,16.9,23.5,01.8,01.2,0655.2,31.0
2021-02-08T15:10:00Z,00000200,01000000,0000.44,0000.28,0000.06,-000.19,-000.03,0000.10,0000.16,0000.07,-000.35,16.9,23.4,02.0,01.3,0655.2,31.0
2021-02-08T15:11:00Z,00000200,01000000,-000.25,0000.22,0000.08,-000.15,-000.02,-000.16,0000.46,0000.51,0000.42,16.9,23.4,01.8,01.2,0655.2,31.0
2021-02-08T15:12:00Z,00000200,00000000,0000.73,0000.31,0000.16,0000.10,0000.19,-000.15,0000.16,-000.03,0000.11,16.8,23.4,01.8,01.2,0655.2,31.0
2021-02-08T15:13:00Z,00000200,01000000,0000.06,0000.36,-000.34,-000.31,0000.03,-000.22,-000.31,0000.02,-000.06,16.8,23.4,01.8,01.2,0655.3,31.0
2021-02-08T15:14:00Z,00000200,01000000,0000.14,-000.27,0000.23,-000.33,-000.12,0000.08,0000.07,-000.29,0000.04,16.8,23.4,01.7,01.1,0655.3,31.0
2021-02-08T15:15:00Z,00000200,01000000,0000.21,0000.03,0000.10,0000.30,0000.19,0000.08,0000.27,0000.24,-000.04,16.8,23.4,01.6,01.1,0655.3,31.0
2021-02-08T15:16:00Z,00000200,01000000,0000.38,-000.07,0000.09,-000.11,-000.03,-000.22,-000.27,-000.09,0000.20,16.8,23.4,01.6,01.1,0655.3,31.0
2021-02-08T15:17:00Z,00000200,01000000,0000.15,0000.29,-000.12,0000.68,0000.13,-000.27,0000.32,0000.29,-000.05,16.8,23.3,01.6,01.1,0655.3,31.0
2021-02-08T15:18:00Z,00000200,01000000,-000.22,-000.02,0000.23,0000.53,-000.02,0000.16,0000.02,-000.00,0000.09,16.8,23.3,01.5,01.0,0655.3,31.0
2021-02-08T15:19:00Z,00000200,01000000,0000.01,-000.19,-000.11,-000.52,-000.03,-000.43,0000.09,-000.08,-000.05,16.8,23.3,01.5,01.0,0655.3,31.0
2021-02-08T15:20:00Z,00000200,01000000,0000.54,0000.04,-000.02,0000.02,-000.06,-000.32,0000.08,0000.03,-000.03,16.7,23.3,01.5,01.0,0655.3,31.0
2021-02-08T15:21:00Z,00000200,01000000,0000.37,-000.08,-000.21,-000.02,0000.07,-000.27,-000.32,-000.22,0000.12,16.7,23.3,01.4,00.9,0655.3,31.0
2021-02-08T15:22:00Z,00000200,01000000,-000.24,0000.34,0000.23,0000.30,-000.03,0000.06,0000.26,0000.30,-000.03,16.7,23.3,01.5,01.0,0655.3,31.0
2021-02-08T15:23:00Z,00000200,01000000,0000.13,-000.11,-000.09,0000.07,0000.27,-000.37,0000.28,-000.09,-000.18,16.7,23.3,01.5,01.0,0655.3,31.0
2021-02-08T15:24:00Z,00000200,01000000,0000.26,-000.03,0000.30,0000.13,-000.01,-000.01,-000.33,0000.44,0000.16,16.7,23.2,01.5,01.0,0655.3,31.0
2021-02-08T15:25:00Z,00000200,01000000,-000.09,0000.22,-000.16,0000.41,-000.14,-000.22,0000.21,-000.40,0000.21,16.7,23.2,01.4,00.9,0655.3,30.9
2021-02-08T15:26:00Z,00000200,01000000,-000.45,0000.06,0000.04,0000.89,0000.17,-000.21,-000.03,0000.16,-000.07,16.7,23.2,01.4,01.0,0655.4,30.9
2021-02-08T15:27:00Z,00000200,01000000,-000.40,0000.11,-000.01,0000.20,0000.15,0000.08,0000.12,0000.28,0000.06,16.6,23.2,01.5,01.0,0655.4,30.9
2021-02-08T15:28:00Z,00000200,01000000,0000.06,0000.17,0000.18,-000.33,-000.10,-000.13,-000.05,-000.41,-000.29,16.6,23.2,01.4,00.9,0655.4,30.9
2021-02-08T15:29:00Z,00000200,01000000,0000.26,0000.04,-000.04,-000.46,-000.09,-000.24,-000.27,0000.15,0000.11,16.6,23.2,01.3,00.9,0655.4,30.9
2021-02-08T15:30:00Z,00000200,01000000,0000.21,-000.01,-000.10,0000.12,0000.10,-000.21,0000.32,-000.21,0000.11,16.7,23.2,01.2,00.8,0655.4,30.9
2021-02-08T15:31:00Z,00000200,01000000,-000.38,0000.26,-000.09,0000.10,0000.07,-000.02,-000.33,0000.18,-000.16,16.7,23.2,01.2,00.8,0655.4,31.0
2021-02-08T15:32:00Z,00000200,01000000,0000.71,0000.17,0000.19,0000.15,-000.18,0000.21,0000.06,-000.02,0000.34,16.8,23.3,01.2,00.8,0655.4,31.0
2021-02-08T15:33:00Z,00000200,01000000,0000.34,-000.28,-000.13,-000.38,0000.21,-000.32,0000.16,0000.33,-000.14,16.9,23.3,01.1,00.8,0655.4,31.0
2021-02-08T15:34:00Z,00000200,01000000,0000.35,-000.06,0000.11,0000.12,0000.26,-000.05,-000.08,-000.05,0000.19,17.0,23.4,01.1,00.8,0655.4,31.0
2021-02-08T15:35:00Z,00000200,01000000,0000.18,-000.00,0000.01,-000.24,0000.02,-000.19,0000.34,0000.21,0000.47,17.1,23.4,01.1,00.7,0655.4,31.0
2021-02-08T15:36:00Z,00000200,01000000,-000.58,-000.16,0000.12,0000.47,0000.08,-000.24,-000.05,-000.31,-000.32,17.1,23.5,01.1,00.8,0655.4,31.0
2021-02-08T15:37:00Z,00000200,01000000,-000.14,-000.24,0000.21,0000.36,-000.04,-000.21,-000.50,-000.32,-000.41,17.2,23.5,01.1,00.7,0655.4,31.0
2021-02-08T15:38:00Z,00000200,01000000,0000.65,0000.08,-000.07,-000.11,-000.25,0000.02,-000.20,0000.03,0000.04,17.2,23.5,01.0,00.7,0655.4,31.0
2021-02-08T15:39:00Z,00000200,01000000,0000.23,-000.16,-000.13,0000.13,0000.34,-000.12,0000.19,-000.00,0000.05,17.2,23.5,01.0,00.7,0655.5,31.0
2021-02-08T15:40:00Z,00000200,01000000,0000.33,0000.00,0000.32,-000.16,-000.12,-000.28,-000.21,0000.14,-000.22,17.2,23.5,00.9,00.6,0655.5,31.0
2021-02-08T15:41:00Z,00000200,01000000,0000.25,0000.01,0000.08,-000.22,0000.01,-000.04,-000.29,-000.66,-000.20,17.1,23.5,01.0,00.7,0655.5,31.0
2021-02-08T15:42:00Z,00000200,01000000,0000.18,0000.20,0000.02,0000.14,-000.14,-000.15,-000.00,0000.35,-000.29,17.1,23.5,00.7,00.5,0655.5,31.0
2021-02-08T15:43:00Z,00000200,01000000,0000.32,-000.16,0000.05,0000.56,-000.25,-000.04,-000.37,-000.18,0000.03,17.1,23.5,00.7,00.4,0655.6,31.0
2021-02-08T15:44:00Z,00000200,01000000,-000.31,0000.25,0000.14,0000.34,0000.07,-000.17,0000.13,-000.46,0000.18,17.1,23.4,00.5,00.3,0655.6,31.0
2021-02-08T15:45:00Z,00000200,01000000,0000.66,-000.07,-000.23,0000.30,0000.17,-000.16,0000.04,-000.07,0000.10,17.1,23.4,00.5,00.3,0655.6,31.0
2021-02-08T15:46:00Z,00000200,01000000,0000.01,0000.19,0000.00,0000.29,0000.02,0000.18,-000.15,0000.04,-000.26,17.1,23.5,00.4,00.3,0655.7,31.0
2021-02-08T15:47:00Z,00000200,01000000,0000.21,-000.09,-000.00,0000.53,0000.22,-000.04,-000.67,-000.21,-000.19,17.2,23.5,00.3,00.2,0655.8,31.0
2021-02-08T15:48:00Z,00000200,01000000,0000.26,0000.03,-000.10,-000.54,-000.02,-000.09,0000.18,-000.15,0000.07,17.2,23.5,00.3,00.2,0655.8,31.0
2021-02-08T15:49:00Z,00000200,01000000,-000.39,0000.00,0000.05,-000.75,0000.05,0000.05,-000.61,-000.24,-000.34,17.2,23.6,00.2,00.1,0655.8,31.0
2021-02-08T15:50:00Z,00000200,01000000,-000.21,0000.09,0000.01,0000.58,-000.08,0000.03,-000.36,-000.05,-000.16,17.2,23.6,00.1,00.1,0655.9,31.0
2021-02-08T15:51:00Z,00000200,01000000,0000.45,0000.23,0000.18,-000.19,0000.17,-000.08,0000.25,-000.58,-000.05,17.2,23.6,00.1,00.1,0655.9,31.0
2021-02-08T15:52:00Z,00000200,01000000,-000.29,0000.07,0000.11,0000.10,0000.22,-000.15,-000.39,0000.19,-000.31,17.2,23.6,00.1,00.0,0656.0,31.0
2021-02-08T15:53:00Z,00000200,01000000,0000.05,-000.19,-000.05,-000.16,0000.11,-000.30,-000.16,-000.23,0000.18,17.2,23.6,00.0,00.0,0656.0,31.0
2021-02-08T15:54:00Z,00000200,01000000,-000.03,0000.07,0000.10,0000.31,0000.17,-000.06,0000.32,0000.32,-000.13,17.2,23.5,00.0,00.0,0656.0,31.0
2021-02-08T15:55:00Z,00000200,01000000,0000.25,0000.14,0000.06,0000.22,0000.28,0000.06,-000.33,-000.39,-000.11,17.1,23.5,00.0,00.0,0656.0,31.0
2021-02-08T15:56:00Z,00000200,01000000,0000.30,-000.30,0000.24,0000.01,-000.03,-000.02,0000.20,0000.04,0000.23,17.1,23.5,00.0,00.0,0656.0,31.0
2021-02-08T15:57:00Z,00000200,41000000,,,,,,,0000.57,0000.71,0000.33,17.1,23.6,,00.0,0656.0,31.0
2021-02-08T15:58:00Z,00000200,61000000,,,,,,,-000.30,-000.45,-000.54,16.8,23.6,00.0,00.0,0655.1,31.0
2021-02-08T15:59:00Z,00000200,21000000,,,,,,,-000.34,-000.39,-000.08,16.7,23.7,,00.0,0655.0,31.0
